Retour au catalogue

ETRSS-1

ActifScienceSSO
NORAD 44880·PAYLOAD·🇪🇹 Ethiopia
Ce nom de satellite n'a pas encore été confirmé par des sources officielles.

Lancé Dec 20, 2019 depuis Taiyuan Satellite Launch Center

Loading…

Prochains Passages (prochaines 24 heures)

TLE

FraisSource: Space-Track

Époque: Sep 14, 2026, 14:02 UTC

1 44880U 19093B   26257.58537554  .00002491  00000-0  22542-3 0  9994
2 44880  97.7786 341.3222 0012774 112.9908 247.2662 14.96274499365422

Suivez ETRSS-1 en temps réel avec AllMySat

Download on the App Store